sat.trackr.live / text

‹ back to catalog

ETRSS-1

NORAD 44880 · 2019-093B

PAYLOAD ACTIVE UNKNOWN

§ Identity

Operator
Country
ETH
Launch date
2019-12-20
Launch site
TAISC
Launch vehicle
Mass (kg)
RCS (m²)

External: N2YO · Heavens-Above · Gunter

§ Orbital elements

Epoch: 2026-09-20T04:51:56.812032Z

Period
96.24 min
Inclination
97.7787°
Eccentricity
0.0012952
Mean motion
14.96302591 rev/d
Perigee alt
569.3 km
Apogee alt
587.3 km
Semi-major
6,956.5 km
B*
1.5156e-4
RAAN
346.9037°
Arg perigee
95.6953°
Mean anomaly
264.5745°
Rev number
36,626

§ Raw data

ETRSS-11 44880U 19093B   26263.20274088  .00001657  00000+0  15156-3 0  99952 44880  97.7787 346.9037 0012952  95.6953 264.5745 14.96302591366265

JSON: /api/v1/satellites/44880 · /tle

For live sub-satellite position, see the globe view (requires WebGL).

§ Visibility from observer

Set your observer location to see the next 7 days of passes ≥ 10°. The values pass through the URL so the page stays shareable.

No JS? Fill the form by hand. The geolocation button needs JavaScript.

§ Radio — SatNOGS DB

ModeDescriptionDownlinkUplink
FM S-band telemetry 2.264 GHz

1 transmitter · refreshed weekly from db.satnogs.org